User: anonymous   Login
Location: Coleto Creek Park and Reservoir
(28.7196°N, 97.1740°W)
Time: 08:38:01
(UTC-06:00)
Language:

Hubble Space Telescope - Orbit

View from above orbital plane
View from above orbital plane
View from above satellite
View from above satellite

Ground track
Ground track

The orbit data is extracted from the following two-line orbital elements,

1 20580U 90037B   16345.19836807  .00000608  00000-0  26678-4 0  9992
2 20580  28.4685 176.1733 0002613 302.2358  16.6063 15.08617271261710
Epoch (UTC): 10 December 2016 04:45:39
Eccentricity: 0.0002613
inclination: 28.4685°
perigee height: 538 km
apogee height: 542 km
right ascension of ascending node: 176.1733°
argument of perigee: 302.2358°
revolutions per day: 15.08617271
mean anomaly at epoch: 16.6063°
orbit number at epoch: 26171

The dashed part of the orbit path shows where the satellite is in the earth's shadow,  

DLR